Zurück zum Katalog

COSMOS 2251 DEB

AktivLEO
NORAD 35885·DEBRIS·🇷🇺 Russia

Gestartet Jun 16, 1993 von Plesetsk Cosmodrome

Loading…

Nächste Überflüge (nächste 24 Stunden)

TLE

AktuellSource: Space-Track

Epoche: Sep 14, 2026, 09:02 UTC

1 35885U 93036ATY 26257.37666644  .00000417  00000-0  14626-3 0  9998
2 35885  74.0282 147.0989 0023846 167.2129 192.9635 14.37914211689778

Verfolge COSMOS 2251 DEB in Echtzeit mit AllMySat

Download on the App Store